<?xml version="1.0"?>
<gpx xmlns="http://www.topografix.com/GPX/1/1" xmlns:xsi="http://www.w3.org/2001/XMLSchema-instance" version="1.1" creator="GPX RubyGem 1.0.0 -- http://dougfales.github.io/gpx/" xsi:schemaLocation="http://www.topografix.com/GPX/1/1 http://www.topografix.com/GPX/1/1/gpx.xsd">
  <metadata>
    <name/>
    <time>2026-05-07T17:32:19+00:00</time>
    <bound minlat="90.0" minlon="180.0" maxlat="-90.0" maxlon="-180.0"/>
  </metadata>
  <trk>
    <name/>
    <trkseg>
      <trkpt lat="46.949441" lon="9.786013">
        <time>1970-01-01T00:00:00+00:00</time>
        <ele>1694.0</ele>
      </trkpt>
      <trkpt lat="46.949241" lon="9.785842">
        <time>1970-01-01T00:00:00+00:00</time>
        <ele>1693.0</ele>
      </trkpt>
      <trkpt lat="46.948729" lon="9.785339">
        <time>1970-01-01T00:00:00+00:00</time>
        <ele>1683.0</ele>
      </trkpt>
      <trkpt lat="46.948253" lon="9.784781">
        <time>1970-01-01T00:00:00+00:00</time>
        <ele>1675.0</ele>
      </trkpt>
      <trkpt lat="46.948042" lon="9.784264">
        <time>1970-01-01T00:00:00+00:00</time>
        <ele>1673.0</ele>
      </trkpt>
      <trkpt lat="46.947708" lon="9.78372">
        <time>1970-01-01T00:00:00+00:00</time>
        <ele>1669.0</ele>
      </trkpt>
      <trkpt lat="46.94759" lon="9.783587">
        <time>1970-01-01T00:00:00+00:00</time>
        <ele>1668.0</ele>
      </trkpt>
      <trkpt lat="46.947467" lon="9.783555">
        <time>1970-01-01T00:00:00+00:00</time>
        <ele>1668.0</ele>
      </trkpt>
      <trkpt lat="46.947398" lon="9.783569">
        <time>1970-01-01T00:00:00+00:00</time>
        <ele>1667.0</ele>
      </trkpt>
      <trkpt lat="46.946985" lon="9.783855">
        <time>1970-01-01T00:00:00+00:00</time>
        <ele>1663.0</ele>
      </trkpt>
      <trkpt lat="46.946741" lon="9.784202">
        <time>1970-01-01T00:00:00+00:00</time>
        <ele>1658.0</ele>
      </trkpt>
      <trkpt lat="46.946677" lon="9.784249">
        <time>1970-01-01T00:00:00+00:00</time>
        <ele>1657.0</ele>
      </trkpt>
      <trkpt lat="46.946613" lon="9.784267">
        <time>1970-01-01T00:00:00+00:00</time>
        <ele>1656.0</ele>
      </trkpt>
      <trkpt lat="46.94649" lon="9.784262">
        <time>1970-01-01T00:00:00+00:00</time>
        <ele>1655.0</ele>
      </trkpt>
      <trkpt lat="46.946349" lon="9.78418">
        <time>1970-01-01T00:00:00+00:00</time>
        <ele>1654.0</ele>
      </trkpt>
      <trkpt lat="46.945727" lon="9.78351">
        <time>1970-01-01T00:00:00+00:00</time>
        <ele>1646.0</ele>
      </trkpt>
      <trkpt lat="46.945354" lon="9.783261">
        <time>1970-01-01T00:00:00+00:00</time>
        <ele>1642.0</ele>
      </trkpt>
      <trkpt lat="46.945219" lon="9.783084">
        <time>1970-01-01T00:00:00+00:00</time>
        <ele>1638.0</ele>
      </trkpt>
      <trkpt lat="46.945126" lon="9.782913">
        <time>1970-01-01T00:00:00+00:00</time>
        <ele>1634.0</ele>
      </trkpt>
      <trkpt lat="46.945029" lon="9.782624">
        <time>1970-01-01T00:00:00+00:00</time>
        <ele>1631.0</ele>
      </trkpt>
      <trkpt lat="46.944801" lon="9.782058">
        <time>1970-01-01T00:00:00+00:00</time>
        <ele>1622.0</ele>
      </trkpt>
      <trkpt lat="46.944664" lon="9.781484">
        <time>1970-01-01T00:00:00+00:00</time>
        <ele>1621.0</ele>
      </trkpt>
      <trkpt lat="46.944577" lon="9.781304">
        <time>1970-01-01T00:00:00+00:00</time>
        <ele>1621.0</ele>
      </trkpt>
      <trkpt lat="46.944379" lon="9.781043">
        <time>1970-01-01T00:00:00+00:00</time>
        <ele>1617.0</ele>
      </trkpt>
      <trkpt lat="46.944347" lon="9.780971">
        <time>1970-01-01T00:00:00+00:00</time>
        <ele>1616.0</ele>
      </trkpt>
      <trkpt lat="46.9443" lon="9.780832">
        <time>1970-01-01T00:00:00+00:00</time>
        <ele>1617.0</ele>
      </trkpt>
      <trkpt lat="46.944292" lon="9.780127">
        <time>1970-01-01T00:00:00+00:00</time>
        <ele>1619.0</ele>
      </trkpt>
      <trkpt lat="46.944157" lon="9.779719">
        <time>1970-01-01T00:00:00+00:00</time>
        <ele>1618.0</ele>
      </trkpt>
      <trkpt lat="46.943982" lon="9.779595">
        <time>1970-01-01T00:00:00+00:00</time>
        <ele>1616.0</ele>
      </trkpt>
      <trkpt lat="46.943781" lon="9.7796">
        <time>1970-01-01T00:00:00+00:00</time>
        <ele>1614.0</ele>
      </trkpt>
      <trkpt lat="46.943312" lon="9.779819">
        <time>1970-01-01T00:00:00+00:00</time>
        <ele>1604.0</ele>
      </trkpt>
      <trkpt lat="46.943127" lon="9.779897">
        <time>1970-01-01T00:00:00+00:00</time>
        <ele>1598.0</ele>
      </trkpt>
      <trkpt lat="46.942925" lon="9.779811">
        <time>1970-01-01T00:00:00+00:00</time>
        <ele>1598.0</ele>
      </trkpt>
      <trkpt lat="46.942743" lon="9.779675">
        <time>1970-01-01T00:00:00+00:00</time>
        <ele>1597.0</ele>
      </trkpt>
      <trkpt lat="46.942488" lon="9.779131">
        <time>1970-01-01T00:00:00+00:00</time>
        <ele>1598.0</ele>
      </trkpt>
      <trkpt lat="46.942323" lon="9.778981">
        <time>1970-01-01T00:00:00+00:00</time>
        <ele>1597.0</ele>
      </trkpt>
      <trkpt lat="46.942135" lon="9.778956">
        <time>1970-01-01T00:00:00+00:00</time>
        <ele>1594.0</ele>
      </trkpt>
      <trkpt lat="46.941793" lon="9.778988">
        <time>1970-01-01T00:00:00+00:00</time>
        <ele>1590.0</ele>
      </trkpt>
      <trkpt lat="46.941264" lon="9.778681">
        <time>1970-01-01T00:00:00+00:00</time>
        <ele>1584.0</ele>
      </trkpt>
      <trkpt lat="46.941089" lon="9.778543">
        <time>1970-01-01T00:00:00+00:00</time>
        <ele>1583.0</ele>
      </trkpt>
      <trkpt lat="46.940987" lon="9.778367">
        <time>1970-01-01T00:00:00+00:00</time>
        <ele>1583.0</ele>
      </trkpt>
      <trkpt lat="46.94089" lon="9.777993">
        <time>1970-01-01T00:00:00+00:00</time>
        <ele>1583.0</ele>
      </trkpt>
      <trkpt lat="46.940778" lon="9.777855">
        <time>1970-01-01T00:00:00+00:00</time>
        <ele>1582.0</ele>
      </trkpt>
      <trkpt lat="46.940334" lon="9.777754">
        <time>1970-01-01T00:00:00+00:00</time>
        <ele>1576.0</ele>
      </trkpt>
      <trkpt lat="46.939984" lon="9.777602">
        <time>1970-01-01T00:00:00+00:00</time>
        <ele>1571.0</ele>
      </trkpt>
      <trkpt lat="46.939752" lon="9.777455">
        <time>1970-01-01T00:00:00+00:00</time>
        <ele>1568.0</ele>
      </trkpt>
      <trkpt lat="46.939529" lon="9.777218">
        <time>1970-01-01T00:00:00+00:00</time>
        <ele>1564.0</ele>
      </trkpt>
      <trkpt lat="46.939601" lon="9.777056">
        <time>1970-01-01T00:00:00+00:00</time>
        <ele>1569.0</ele>
      </trkpt>
      <trkpt lat="46.939567" lon="9.776856">
        <time>1970-01-01T00:00:00+00:00</time>
        <ele>1571.0</ele>
      </trkpt>
      <trkpt lat="46.939493" lon="9.77671">
        <time>1970-01-01T00:00:00+00:00</time>
        <ele>1572.0</ele>
      </trkpt>
      <trkpt lat="46.939246" lon="9.776472">
        <time>1970-01-01T00:00:00+00:00</time>
        <ele>1572.0</ele>
      </trkpt>
      <trkpt lat="46.939221" lon="9.776319">
        <time>1970-01-01T00:00:00+00:00</time>
        <ele>1575.0</ele>
      </trkpt>
      <trkpt lat="46.939259" lon="9.775606">
        <time>1970-01-01T00:00:00+00:00</time>
        <ele>1583.0</ele>
      </trkpt>
      <trkpt lat="46.939221" lon="9.775423">
        <time>1970-01-01T00:00:00+00:00</time>
        <ele>1584.0</ele>
      </trkpt>
      <trkpt lat="46.939221" lon="9.7753">
        <time>1970-01-01T00:00:00+00:00</time>
        <ele>1584.0</ele>
      </trkpt>
      <trkpt lat="46.93925" lon="9.775174">
        <time>1970-01-01T00:00:00+00:00</time>
        <ele>1586.0</ele>
      </trkpt>
      <trkpt lat="46.939327" lon="9.774992">
        <time>1970-01-01T00:00:00+00:00</time>
        <ele>1589.0</ele>
      </trkpt>
      <trkpt lat="46.939361" lon="9.774809">
        <time>1970-01-01T00:00:00+00:00</time>
        <ele>1591.0</ele>
      </trkpt>
      <trkpt lat="46.939393" lon="9.774471">
        <time>1970-01-01T00:00:00+00:00</time>
        <ele>1595.0</ele>
      </trkpt>
      <trkpt lat="46.939398" lon="9.774203">
        <time>1970-01-01T00:00:00+00:00</time>
        <ele>1597.0</ele>
      </trkpt>
      <trkpt lat="46.939371" lon="9.773848">
        <time>1970-01-01T00:00:00+00:00</time>
        <ele>1600.0</ele>
      </trkpt>
      <trkpt lat="46.939274" lon="9.773578">
        <time>1970-01-01T00:00:00+00:00</time>
        <ele>1603.0</ele>
      </trkpt>
      <trkpt lat="46.9392" lon="9.773277">
        <time>1970-01-01T00:00:00+00:00</time>
        <ele>1608.0</ele>
      </trkpt>
      <trkpt lat="46.939195" lon="9.773165">
        <time>1970-01-01T00:00:00+00:00</time>
        <ele>1609.0</ele>
      </trkpt>
      <trkpt lat="46.939217" lon="9.772857">
        <time>1970-01-01T00:00:00+00:00</time>
        <ele>1611.0</ele>
      </trkpt>
      <trkpt lat="46.939442" lon="9.77254">
        <time>1970-01-01T00:00:00+00:00</time>
        <ele>1618.0</ele>
      </trkpt>
      <trkpt lat="46.939481" lon="9.772438">
        <time>1970-01-01T00:00:00+00:00</time>
        <ele>1619.0</ele>
      </trkpt>
      <trkpt lat="46.939492" lon="9.772333">
        <time>1970-01-01T00:00:00+00:00</time>
        <ele>1620.0</ele>
      </trkpt>
      <trkpt lat="46.939413" lon="9.772016">
        <time>1970-01-01T00:00:00+00:00</time>
        <ele>1620.0</ele>
      </trkpt>
      <trkpt lat="46.939396" lon="9.771896">
        <time>1970-01-01T00:00:00+00:00</time>
        <ele>1621.0</ele>
      </trkpt>
      <trkpt lat="46.939405" lon="9.771725">
        <time>1970-01-01T00:00:00+00:00</time>
        <ele>1622.0</ele>
      </trkpt>
      <trkpt lat="46.939451" lon="9.771558">
        <time>1970-01-01T00:00:00+00:00</time>
        <ele>1623.0</ele>
      </trkpt>
      <trkpt lat="46.939536" lon="9.771354">
        <time>1970-01-01T00:00:00+00:00</time>
        <ele>1627.0</ele>
      </trkpt>
      <trkpt lat="46.939598" lon="9.771271">
        <time>1970-01-01T00:00:00+00:00</time>
        <ele>1628.0</ele>
      </trkpt>
      <trkpt lat="46.939841" lon="9.771194">
        <time>1970-01-01T00:00:00+00:00</time>
        <ele>1633.0</ele>
      </trkpt>
      <trkpt lat="46.9399" lon="9.771135">
        <time>1970-01-01T00:00:00+00:00</time>
        <ele>1635.0</ele>
      </trkpt>
      <trkpt lat="46.93992" lon="9.771024">
        <time>1970-01-01T00:00:00+00:00</time>
        <ele>1636.0</ele>
      </trkpt>
      <trkpt lat="46.939854" lon="9.770394">
        <time>1970-01-01T00:00:00+00:00</time>
        <ele>1637.0</ele>
      </trkpt>
      <trkpt lat="46.939882" lon="9.770073">
        <time>1970-01-01T00:00:00+00:00</time>
        <ele>1641.0</ele>
      </trkpt>
      <trkpt lat="46.939819" lon="9.769791">
        <time>1970-01-01T00:00:00+00:00</time>
        <ele>1642.0</ele>
      </trkpt>
      <trkpt lat="46.939761" lon="9.769609">
        <time>1970-01-01T00:00:00+00:00</time>
        <ele>1642.0</ele>
      </trkpt>
      <trkpt lat="46.939737" lon="9.769442">
        <time>1970-01-01T00:00:00+00:00</time>
        <ele>1642.0</ele>
      </trkpt>
      <trkpt lat="46.939893" lon="9.768772">
        <time>1970-01-01T00:00:00+00:00</time>
        <ele>1651.0</ele>
      </trkpt>
      <trkpt lat="46.939905" lon="9.768581">
        <time>1970-01-01T00:00:00+00:00</time>
        <ele>1653.0</ele>
      </trkpt>
      <trkpt lat="46.939887" lon="9.768351">
        <time>1970-01-01T00:00:00+00:00</time>
        <ele>1655.0</ele>
      </trkpt>
      <trkpt lat="46.939892" lon="9.768214">
        <time>1970-01-01T00:00:00+00:00</time>
        <ele>1656.0</ele>
      </trkpt>
      <trkpt lat="46.939909" lon="9.768172">
        <time>1970-01-01T00:00:00+00:00</time>
        <ele>1658.0</ele>
      </trkpt>
      <trkpt lat="46.939861" lon="9.767659">
        <time>1970-01-01T00:00:00+00:00</time>
        <ele>1660.0</ele>
      </trkpt>
      <trkpt lat="46.939865" lon="9.767476">
        <time>1970-01-01T00:00:00+00:00</time>
        <ele>1662.0</ele>
      </trkpt>
      <trkpt lat="46.93999" lon="9.766682">
        <time>1970-01-01T00:00:00+00:00</time>
        <ele>1664.0</ele>
      </trkpt>
      <trkpt lat="46.940098" lon="9.766288">
        <time>1970-01-01T00:00:00+00:00</time>
        <ele>1668.0</ele>
      </trkpt>
      <trkpt lat="46.940438" lon="9.765671">
        <time>1970-01-01T00:00:00+00:00</time>
        <ele>1670.0</ele>
      </trkpt>
      <trkpt lat="46.940565" lon="9.765296">
        <time>1970-01-01T00:00:00+00:00</time>
        <ele>1667.0</ele>
      </trkpt>
      <trkpt lat="46.940594" lon="9.764916">
        <time>1970-01-01T00:00:00+00:00</time>
        <ele>1664.0</ele>
      </trkpt>
      <trkpt lat="46.940599" lon="9.764743">
        <time>1970-01-01T00:00:00+00:00</time>
        <ele>1662.0</ele>
      </trkpt>
      <trkpt lat="46.940654" lon="9.76441">
        <time>1970-01-01T00:00:00+00:00</time>
        <ele>1663.0</ele>
      </trkpt>
      <trkpt lat="46.940742" lon="9.764131">
        <time>1970-01-01T00:00:00+00:00</time>
        <ele>1666.0</ele>
      </trkpt>
      <trkpt lat="46.941235" lon="9.762989">
        <time>1970-01-01T00:00:00+00:00</time>
        <ele>1671.0</ele>
      </trkpt>
      <trkpt lat="46.941513" lon="9.762452">
        <time>1970-01-01T00:00:00+00:00</time>
        <ele>1678.0</ele>
      </trkpt>
      <trkpt lat="46.941598" lon="9.761935">
        <time>1970-01-01T00:00:00+00:00</time>
        <ele>1678.0</ele>
      </trkpt>
      <trkpt lat="46.941621" lon="9.761511">
        <time>1970-01-01T00:00:00+00:00</time>
        <ele>1679.0</ele>
      </trkpt>
      <trkpt lat="46.94166" lon="9.761385">
        <time>1970-01-01T00:00:00+00:00</time>
        <ele>1680.0</ele>
      </trkpt>
      <trkpt lat="46.941737" lon="9.761341">
        <time>1970-01-01T00:00:00+00:00</time>
        <ele>1681.0</ele>
      </trkpt>
      <trkpt lat="46.941843" lon="9.761409">
        <time>1970-01-01T00:00:00+00:00</time>
        <ele>1683.0</ele>
      </trkpt>
      <trkpt lat="46.941913" lon="9.761632">
        <time>1970-01-01T00:00:00+00:00</time>
        <ele>1685.0</ele>
      </trkpt>
      <trkpt lat="46.94194" lon="9.761945">
        <time>1970-01-01T00:00:00+00:00</time>
        <ele>1687.0</ele>
      </trkpt>
      <trkpt lat="46.941863" lon="9.762527">
        <time>1970-01-01T00:00:00+00:00</time>
        <ele>1693.0</ele>
      </trkpt>
      <trkpt lat="46.941768" lon="9.762959">
        <time>1970-01-01T00:00:00+00:00</time>
        <ele>1694.0</ele>
      </trkpt>
      <trkpt lat="46.941781" lon="9.76304">
        <time>1970-01-01T00:00:00+00:00</time>
        <ele>1695.0</ele>
      </trkpt>
      <trkpt lat="46.941931" lon="9.763345">
        <time>1970-01-01T00:00:00+00:00</time>
        <ele>1706.0</ele>
      </trkpt>
      <trkpt lat="46.941975" lon="9.763385">
        <time>1970-01-01T00:00:00+00:00</time>
        <ele>1709.0</ele>
      </trkpt>
      <trkpt lat="46.942021" lon="9.763362">
        <time>1970-01-01T00:00:00+00:00</time>
        <ele>1710.0</ele>
      </trkpt>
      <trkpt lat="46.94222" lon="9.763075">
        <time>1970-01-01T00:00:00+00:00</time>
        <ele>1714.0</ele>
      </trkpt>
      <trkpt lat="46.942321" lon="9.762882">
        <time>1970-01-01T00:00:00+00:00</time>
        <ele>1715.0</ele>
      </trkpt>
      <trkpt lat="46.942352" lon="9.762742">
        <time>1970-01-01T00:00:00+00:00</time>
        <ele>1715.0</ele>
      </trkpt>
      <trkpt lat="46.942365" lon="9.762447">
        <time>1970-01-01T00:00:00+00:00</time>
        <ele>1713.0</ele>
      </trkpt>
      <trkpt lat="46.942444" lon="9.762235">
        <time>1970-01-01T00:00:00+00:00</time>
        <ele>1713.0</ele>
      </trkpt>
      <trkpt lat="46.942581" lon="9.76201">
        <time>1970-01-01T00:00:00+00:00</time>
        <ele>1719.0</ele>
      </trkpt>
      <trkpt lat="46.942868" lon="9.761675">
        <time>1970-01-01T00:00:00+00:00</time>
        <ele>1730.0</ele>
      </trkpt>
      <trkpt lat="46.942896" lon="9.761581">
        <time>1970-01-01T00:00:00+00:00</time>
        <ele>1730.0</ele>
      </trkpt>
      <trkpt lat="46.942982" lon="9.761449">
        <time>1970-01-01T00:00:00+00:00</time>
        <ele>1732.0</ele>
      </trkpt>
      <trkpt lat="46.943171" lon="9.76124">
        <time>1970-01-01T00:00:00+00:00</time>
        <ele>1738.0</ele>
      </trkpt>
      <trkpt lat="46.943275" lon="9.761154">
        <time>1970-01-01T00:00:00+00:00</time>
        <ele>1741.0</ele>
      </trkpt>
      <trkpt lat="46.94333" lon="9.761148">
        <time>1970-01-01T00:00:00+00:00</time>
        <ele>1744.0</ele>
      </trkpt>
      <trkpt lat="46.943888" lon="9.761266">
        <time>1970-01-01T00:00:00+00:00</time>
        <ele>1763.0</ele>
      </trkpt>
      <trkpt lat="46.944075" lon="9.76138">
        <time>1970-01-01T00:00:00+00:00</time>
        <ele>1768.0</ele>
      </trkpt>
      <trkpt lat="46.944145" lon="9.761361">
        <time>1970-01-01T00:00:00+00:00</time>
        <ele>1771.0</ele>
      </trkpt>
      <trkpt lat="46.944209" lon="9.761288">
        <time>1970-01-01T00:00:00+00:00</time>
        <ele>1774.0</ele>
      </trkpt>
      <trkpt lat="46.944262" lon="9.761181">
        <time>1970-01-01T00:00:00+00:00</time>
        <ele>1775.0</ele>
      </trkpt>
      <trkpt lat="46.944343" lon="9.76083">
        <time>1970-01-01T00:00:00+00:00</time>
        <ele>1780.0</ele>
      </trkpt>
      <trkpt lat="46.944355" lon="9.760457">
        <time>1970-01-01T00:00:00+00:00</time>
        <ele>1782.0</ele>
      </trkpt>
      <trkpt lat="46.944394" lon="9.76039">
        <time>1970-01-01T00:00:00+00:00</time>
        <ele>1785.0</ele>
      </trkpt>
      <trkpt lat="46.944447" lon="9.760389">
        <time>1970-01-01T00:00:00+00:00</time>
        <ele>1788.0</ele>
      </trkpt>
      <trkpt lat="46.944491" lon="9.760586">
        <time>1970-01-01T00:00:00+00:00</time>
        <ele>1789.0</ele>
      </trkpt>
      <trkpt lat="46.944555" lon="9.760657">
        <time>1970-01-01T00:00:00+00:00</time>
        <ele>1791.0</ele>
      </trkpt>
      <trkpt lat="46.944619" lon="9.760674">
        <time>1970-01-01T00:00:00+00:00</time>
        <ele>1793.0</ele>
      </trkpt>
      <trkpt lat="46.944659" lon="9.76061">
        <time>1970-01-01T00:00:00+00:00</time>
        <ele>1795.0</ele>
      </trkpt>
      <trkpt lat="46.944736" lon="9.760417">
        <time>1970-01-01T00:00:00+00:00</time>
        <ele>1800.0</ele>
      </trkpt>
      <trkpt lat="46.945297" lon="9.759547">
        <time>1970-01-01T00:00:00+00:00</time>
        <ele>1829.0</ele>
      </trkpt>
      <trkpt lat="46.945339" lon="9.759416">
        <time>1970-01-01T00:00:00+00:00</time>
        <ele>1830.0</ele>
      </trkpt>
      <trkpt lat="46.945427" lon="9.759263">
        <time>1970-01-01T00:00:00+00:00</time>
        <ele>1832.0</ele>
      </trkpt>
      <trkpt lat="46.945707" lon="9.758928">
        <time>1970-01-01T00:00:00+00:00</time>
        <ele>1838.0</ele>
      </trkpt>
      <trkpt lat="46.945796" lon="9.758893">
        <time>1970-01-01T00:00:00+00:00</time>
        <ele>1840.0</ele>
      </trkpt>
      <trkpt lat="46.945886" lon="9.758917">
        <time>1970-01-01T00:00:00+00:00</time>
        <ele>1841.0</ele>
      </trkpt>
      <trkpt lat="46.946036" lon="9.759016">
        <time>1970-01-01T00:00:00+00:00</time>
        <ele>1842.0</ele>
      </trkpt>
      <trkpt lat="46.946036" lon="9.759016">
        <time>1970-01-01T00:00:00+00:00</time>
        <ele>1842.0</ele>
      </trkpt>
      <trkpt lat="46.945886" lon="9.758917">
        <time>1970-01-01T00:00:00+00:00</time>
        <ele>1841.0</ele>
      </trkpt>
      <trkpt lat="46.945796" lon="9.758893">
        <time>1970-01-01T00:00:00+00:00</time>
        <ele>1840.0</ele>
      </trkpt>
      <trkpt lat="46.945707" lon="9.758928">
        <time>1970-01-01T00:00:00+00:00</time>
        <ele>1838.0</ele>
      </trkpt>
      <trkpt lat="46.945427" lon="9.759263">
        <time>1970-01-01T00:00:00+00:00</time>
        <ele>1832.0</ele>
      </trkpt>
      <trkpt lat="46.945339" lon="9.759416">
        <time>1970-01-01T00:00:00+00:00</time>
        <ele>1830.0</ele>
      </trkpt>
      <trkpt lat="46.945297" lon="9.759547">
        <time>1970-01-01T00:00:00+00:00</time>
        <ele>1829.0</ele>
      </trkpt>
      <trkpt lat="46.944736" lon="9.760417">
        <time>1970-01-01T00:00:00+00:00</time>
        <ele>1800.0</ele>
      </trkpt>
      <trkpt lat="46.944659" lon="9.76061">
        <time>1970-01-01T00:00:00+00:00</time>
        <ele>1795.0</ele>
      </trkpt>
      <trkpt lat="46.944619" lon="9.760674">
        <time>1970-01-01T00:00:00+00:00</time>
        <ele>1793.0</ele>
      </trkpt>
      <trkpt lat="46.944555" lon="9.760657">
        <time>1970-01-01T00:00:00+00:00</time>
        <ele>1791.0</ele>
      </trkpt>
      <trkpt lat="46.944491" lon="9.760586">
        <time>1970-01-01T00:00:00+00:00</time>
        <ele>1789.0</ele>
      </trkpt>
      <trkpt lat="46.944447" lon="9.760389">
        <time>1970-01-01T00:00:00+00:00</time>
        <ele>1788.0</ele>
      </trkpt>
      <trkpt lat="46.944394" lon="9.76039">
        <time>1970-01-01T00:00:00+00:00</time>
        <ele>1785.0</ele>
      </trkpt>
      <trkpt lat="46.944355" lon="9.760457">
        <time>1970-01-01T00:00:00+00:00</time>
        <ele>1782.0</ele>
      </trkpt>
      <trkpt lat="46.944343" lon="9.76083">
        <time>1970-01-01T00:00:00+00:00</time>
        <ele>1780.0</ele>
      </trkpt>
      <trkpt lat="46.944262" lon="9.761181">
        <time>1970-01-01T00:00:00+00:00</time>
        <ele>1775.0</ele>
      </trkpt>
      <trkpt lat="46.944209" lon="9.761288">
        <time>1970-01-01T00:00:00+00:00</time>
        <ele>1774.0</ele>
      </trkpt>
      <trkpt lat="46.944145" lon="9.761361">
        <time>1970-01-01T00:00:00+00:00</time>
        <ele>1771.0</ele>
      </trkpt>
      <trkpt lat="46.944075" lon="9.76138">
        <time>1970-01-01T00:00:00+00:00</time>
        <ele>1768.0</ele>
      </trkpt>
      <trkpt lat="46.943888" lon="9.761266">
        <time>1970-01-01T00:00:00+00:00</time>
        <ele>1763.0</ele>
      </trkpt>
      <trkpt lat="46.94333" lon="9.761148">
        <time>1970-01-01T00:00:00+00:00</time>
        <ele>1744.0</ele>
      </trkpt>
      <trkpt lat="46.943275" lon="9.761154">
        <time>1970-01-01T00:00:00+00:00</time>
        <ele>1741.0</ele>
      </trkpt>
      <trkpt lat="46.943171" lon="9.76124">
        <time>1970-01-01T00:00:00+00:00</time>
        <ele>1738.0</ele>
      </trkpt>
      <trkpt lat="46.942982" lon="9.761449">
        <time>1970-01-01T00:00:00+00:00</time>
        <ele>1732.0</ele>
      </trkpt>
      <trkpt lat="46.942896" lon="9.761581">
        <time>1970-01-01T00:00:00+00:00</time>
        <ele>1730.0</ele>
      </trkpt>
      <trkpt lat="46.942868" lon="9.761675">
        <time>1970-01-01T00:00:00+00:00</time>
        <ele>1730.0</ele>
      </trkpt>
      <trkpt lat="46.942581" lon="9.76201">
        <time>1970-01-01T00:00:00+00:00</time>
        <ele>1719.0</ele>
      </trkpt>
      <trkpt lat="46.942444" lon="9.762235">
        <time>1970-01-01T00:00:00+00:00</time>
        <ele>1713.0</ele>
      </trkpt>
      <trkpt lat="46.942365" lon="9.762447">
        <time>1970-01-01T00:00:00+00:00</time>
        <ele>1713.0</ele>
      </trkpt>
      <trkpt lat="46.942352" lon="9.762742">
        <time>1970-01-01T00:00:00+00:00</time>
        <ele>1715.0</ele>
      </trkpt>
      <trkpt lat="46.942321" lon="9.762882">
        <time>1970-01-01T00:00:00+00:00</time>
        <ele>1715.0</ele>
      </trkpt>
      <trkpt lat="46.94222" lon="9.763075">
        <time>1970-01-01T00:00:00+00:00</time>
        <ele>1714.0</ele>
      </trkpt>
      <trkpt lat="46.942021" lon="9.763362">
        <time>1970-01-01T00:00:00+00:00</time>
        <ele>1710.0</ele>
      </trkpt>
      <trkpt lat="46.941975" lon="9.763385">
        <time>1970-01-01T00:00:00+00:00</time>
        <ele>1709.0</ele>
      </trkpt>
      <trkpt lat="46.941931" lon="9.763345">
        <time>1970-01-01T00:00:00+00:00</time>
        <ele>1706.0</ele>
      </trkpt>
      <trkpt lat="46.941781" lon="9.76304">
        <time>1970-01-01T00:00:00+00:00</time>
        <ele>1695.0</ele>
      </trkpt>
      <trkpt lat="46.941768" lon="9.762959">
        <time>1970-01-01T00:00:00+00:00</time>
        <ele>1694.0</ele>
      </trkpt>
      <trkpt lat="46.941863" lon="9.762527">
        <time>1970-01-01T00:00:00+00:00</time>
        <ele>1693.0</ele>
      </trkpt>
      <trkpt lat="46.94194" lon="9.761945">
        <time>1970-01-01T00:00:00+00:00</time>
        <ele>1687.0</ele>
      </trkpt>
      <trkpt lat="46.941913" lon="9.761632">
        <time>1970-01-01T00:00:00+00:00</time>
        <ele>1685.0</ele>
      </trkpt>
      <trkpt lat="46.941843" lon="9.761409">
        <time>1970-01-01T00:00:00+00:00</time>
        <ele>1683.0</ele>
      </trkpt>
      <trkpt lat="46.941737" lon="9.761341">
        <time>1970-01-01T00:00:00+00:00</time>
        <ele>1681.0</ele>
      </trkpt>
      <trkpt lat="46.94166" lon="9.761385">
        <time>1970-01-01T00:00:00+00:00</time>
        <ele>1680.0</ele>
      </trkpt>
      <trkpt lat="46.941621" lon="9.761511">
        <time>1970-01-01T00:00:00+00:00</time>
        <ele>1679.0</ele>
      </trkpt>
      <trkpt lat="46.941598" lon="9.761935">
        <time>1970-01-01T00:00:00+00:00</time>
        <ele>1678.0</ele>
      </trkpt>
      <trkpt lat="46.941513" lon="9.762452">
        <time>1970-01-01T00:00:00+00:00</time>
        <ele>1678.0</ele>
      </trkpt>
      <trkpt lat="46.941235" lon="9.762989">
        <time>1970-01-01T00:00:00+00:00</time>
        <ele>1671.0</ele>
      </trkpt>
      <trkpt lat="46.940742" lon="9.764131">
        <time>1970-01-01T00:00:00+00:00</time>
        <ele>1666.0</ele>
      </trkpt>
      <trkpt lat="46.940654" lon="9.76441">
        <time>1970-01-01T00:00:00+00:00</time>
        <ele>1663.0</ele>
      </trkpt>
      <trkpt lat="46.940599" lon="9.764743">
        <time>1970-01-01T00:00:00+00:00</time>
        <ele>1662.0</ele>
      </trkpt>
      <trkpt lat="46.940594" lon="9.764916">
        <time>1970-01-01T00:00:00+00:00</time>
        <ele>1664.0</ele>
      </trkpt>
      <trkpt lat="46.940565" lon="9.765296">
        <time>1970-01-01T00:00:00+00:00</time>
        <ele>1667.0</ele>
      </trkpt>
      <trkpt lat="46.940438" lon="9.765671">
        <time>1970-01-01T00:00:00+00:00</time>
        <ele>1670.0</ele>
      </trkpt>
      <trkpt lat="46.940098" lon="9.766288">
        <time>1970-01-01T00:00:00+00:00</time>
        <ele>1668.0</ele>
      </trkpt>
      <trkpt lat="46.93999" lon="9.766682">
        <time>1970-01-01T00:00:00+00:00</time>
        <ele>1664.0</ele>
      </trkpt>
      <trkpt lat="46.939865" lon="9.767476">
        <time>1970-01-01T00:00:00+00:00</time>
        <ele>1662.0</ele>
      </trkpt>
      <trkpt lat="46.939861" lon="9.767659">
        <time>1970-01-01T00:00:00+00:00</time>
        <ele>1660.0</ele>
      </trkpt>
      <trkpt lat="46.939909" lon="9.768172">
        <time>1970-01-01T00:00:00+00:00</time>
        <ele>1658.0</ele>
      </trkpt>
      <trkpt lat="46.939892" lon="9.768214">
        <time>1970-01-01T00:00:00+00:00</time>
        <ele>1656.0</ele>
      </trkpt>
      <trkpt lat="46.939887" lon="9.768351">
        <time>1970-01-01T00:00:00+00:00</time>
        <ele>1655.0</ele>
      </trkpt>
      <trkpt lat="46.939905" lon="9.768581">
        <time>1970-01-01T00:00:00+00:00</time>
        <ele>1653.0</ele>
      </trkpt>
      <trkpt lat="46.939893" lon="9.768772">
        <time>1970-01-01T00:00:00+00:00</time>
        <ele>1651.0</ele>
      </trkpt>
      <trkpt lat="46.939737" lon="9.769442">
        <time>1970-01-01T00:00:00+00:00</time>
        <ele>1642.0</ele>
      </trkpt>
      <trkpt lat="46.939761" lon="9.769609">
        <time>1970-01-01T00:00:00+00:00</time>
        <ele>1642.0</ele>
      </trkpt>
      <trkpt lat="46.939819" lon="9.769791">
        <time>1970-01-01T00:00:00+00:00</time>
        <ele>1642.0</ele>
      </trkpt>
      <trkpt lat="46.939882" lon="9.770073">
        <time>1970-01-01T00:00:00+00:00</time>
        <ele>1641.0</ele>
      </trkpt>
      <trkpt lat="46.939854" lon="9.770394">
        <time>1970-01-01T00:00:00+00:00</time>
        <ele>1637.0</ele>
      </trkpt>
      <trkpt lat="46.93992" lon="9.771024">
        <time>1970-01-01T00:00:00+00:00</time>
        <ele>1636.0</ele>
      </trkpt>
      <trkpt lat="46.9399" lon="9.771135">
        <time>1970-01-01T00:00:00+00:00</time>
        <ele>1635.0</ele>
      </trkpt>
      <trkpt lat="46.939841" lon="9.771194">
        <time>1970-01-01T00:00:00+00:00</time>
        <ele>1633.0</ele>
      </trkpt>
      <trkpt lat="46.939598" lon="9.771271">
        <time>1970-01-01T00:00:00+00:00</time>
        <ele>1628.0</ele>
      </trkpt>
      <trkpt lat="46.939536" lon="9.771354">
        <time>1970-01-01T00:00:00+00:00</time>
        <ele>1627.0</ele>
      </trkpt>
      <trkpt lat="46.939451" lon="9.771558">
        <time>1970-01-01T00:00:00+00:00</time>
        <ele>1623.0</ele>
      </trkpt>
      <trkpt lat="46.939405" lon="9.771725">
        <time>1970-01-01T00:00:00+00:00</time>
        <ele>1622.0</ele>
      </trkpt>
      <trkpt lat="46.939396" lon="9.771896">
        <time>1970-01-01T00:00:00+00:00</time>
        <ele>1621.0</ele>
      </trkpt>
      <trkpt lat="46.939413" lon="9.772016">
        <time>1970-01-01T00:00:00+00:00</time>
        <ele>1620.0</ele>
      </trkpt>
      <trkpt lat="46.939492" lon="9.772333">
        <time>1970-01-01T00:00:00+00:00</time>
        <ele>1620.0</ele>
      </trkpt>
      <trkpt lat="46.939481" lon="9.772438">
        <time>1970-01-01T00:00:00+00:00</time>
        <ele>1619.0</ele>
      </trkpt>
      <trkpt lat="46.939442" lon="9.77254">
        <time>1970-01-01T00:00:00+00:00</time>
        <ele>1618.0</ele>
      </trkpt>
      <trkpt lat="46.939217" lon="9.772857">
        <time>1970-01-01T00:00:00+00:00</time>
        <ele>1611.0</ele>
      </trkpt>
      <trkpt lat="46.939195" lon="9.773165">
        <time>1970-01-01T00:00:00+00:00</time>
        <ele>1609.0</ele>
      </trkpt>
      <trkpt lat="46.9392" lon="9.773277">
        <time>1970-01-01T00:00:00+00:00</time>
        <ele>1608.0</ele>
      </trkpt>
      <trkpt lat="46.939274" lon="9.773578">
        <time>1970-01-01T00:00:00+00:00</time>
        <ele>1603.0</ele>
      </trkpt>
      <trkpt lat="46.939371" lon="9.773848">
        <time>1970-01-01T00:00:00+00:00</time>
        <ele>1600.0</ele>
      </trkpt>
      <trkpt lat="46.939398" lon="9.774203">
        <time>1970-01-01T00:00:00+00:00</time>
        <ele>1597.0</ele>
      </trkpt>
      <trkpt lat="46.939393" lon="9.774471">
        <time>1970-01-01T00:00:00+00:00</time>
        <ele>1595.0</ele>
      </trkpt>
      <trkpt lat="46.939361" lon="9.774809">
        <time>1970-01-01T00:00:00+00:00</time>
        <ele>1591.0</ele>
      </trkpt>
      <trkpt lat="46.939327" lon="9.774992">
        <time>1970-01-01T00:00:00+00:00</time>
        <ele>1589.0</ele>
      </trkpt>
      <trkpt lat="46.93925" lon="9.775174">
        <time>1970-01-01T00:00:00+00:00</time>
        <ele>1586.0</ele>
      </trkpt>
      <trkpt lat="46.939221" lon="9.7753">
        <time>1970-01-01T00:00:00+00:00</time>
        <ele>1584.0</ele>
      </trkpt>
      <trkpt lat="46.939221" lon="9.775423">
        <time>1970-01-01T00:00:00+00:00</time>
        <ele>1584.0</ele>
      </trkpt>
      <trkpt lat="46.939259" lon="9.775606">
        <time>1970-01-01T00:00:00+00:00</time>
        <ele>1583.0</ele>
      </trkpt>
      <trkpt lat="46.939221" lon="9.776319">
        <time>1970-01-01T00:00:00+00:00</time>
        <ele>1575.0</ele>
      </trkpt>
      <trkpt lat="46.939246" lon="9.776472">
        <time>1970-01-01T00:00:00+00:00</time>
        <ele>1572.0</ele>
      </trkpt>
      <trkpt lat="46.939493" lon="9.77671">
        <time>1970-01-01T00:00:00+00:00</time>
        <ele>1572.0</ele>
      </trkpt>
      <trkpt lat="46.939567" lon="9.776856">
        <time>1970-01-01T00:00:00+00:00</time>
        <ele>1571.0</ele>
      </trkpt>
      <trkpt lat="46.939601" lon="9.777056">
        <time>1970-01-01T00:00:00+00:00</time>
        <ele>1569.0</ele>
      </trkpt>
      <trkpt lat="46.939529" lon="9.777218">
        <time>1970-01-01T00:00:00+00:00</time>
        <ele>1564.0</ele>
      </trkpt>
      <trkpt lat="46.939752" lon="9.777455">
        <time>1970-01-01T00:00:00+00:00</time>
        <ele>1568.0</ele>
      </trkpt>
      <trkpt lat="46.939984" lon="9.777602">
        <time>1970-01-01T00:00:00+00:00</time>
        <ele>1571.0</ele>
      </trkpt>
      <trkpt lat="46.940334" lon="9.777754">
        <time>1970-01-01T00:00:00+00:00</time>
        <ele>1576.0</ele>
      </trkpt>
      <trkpt lat="46.940778" lon="9.777855">
        <time>1970-01-01T00:00:00+00:00</time>
        <ele>1582.0</ele>
      </trkpt>
      <trkpt lat="46.94089" lon="9.777993">
        <time>1970-01-01T00:00:00+00:00</time>
        <ele>1583.0</ele>
      </trkpt>
      <trkpt lat="46.940987" lon="9.778367">
        <time>1970-01-01T00:00:00+00:00</time>
        <ele>1583.0</ele>
      </trkpt>
      <trkpt lat="46.941089" lon="9.778543">
        <time>1970-01-01T00:00:00+00:00</time>
        <ele>1583.0</ele>
      </trkpt>
      <trkpt lat="46.941264" lon="9.778681">
        <time>1970-01-01T00:00:00+00:00</time>
        <ele>1584.0</ele>
      </trkpt>
      <trkpt lat="46.941793" lon="9.778988">
        <time>1970-01-01T00:00:00+00:00</time>
        <ele>1590.0</ele>
      </trkpt>
      <trkpt lat="46.942135" lon="9.778956">
        <time>1970-01-01T00:00:00+00:00</time>
        <ele>1594.0</ele>
      </trkpt>
      <trkpt lat="46.942323" lon="9.778981">
        <time>1970-01-01T00:00:00+00:00</time>
        <ele>1597.0</ele>
      </trkpt>
      <trkpt lat="46.942488" lon="9.779131">
        <time>1970-01-01T00:00:00+00:00</time>
        <ele>1598.0</ele>
      </trkpt>
      <trkpt lat="46.942743" lon="9.779675">
        <time>1970-01-01T00:00:00+00:00</time>
        <ele>1597.0</ele>
      </trkpt>
      <trkpt lat="46.942925" lon="9.779811">
        <time>1970-01-01T00:00:00+00:00</time>
        <ele>1598.0</ele>
      </trkpt>
      <trkpt lat="46.943127" lon="9.779897">
        <time>1970-01-01T00:00:00+00:00</time>
        <ele>1598.0</ele>
      </trkpt>
      <trkpt lat="46.943312" lon="9.779819">
        <time>1970-01-01T00:00:00+00:00</time>
        <ele>1604.0</ele>
      </trkpt>
      <trkpt lat="46.943781" lon="9.7796">
        <time>1970-01-01T00:00:00+00:00</time>
        <ele>1614.0</ele>
      </trkpt>
      <trkpt lat="46.943982" lon="9.779595">
        <time>1970-01-01T00:00:00+00:00</time>
        <ele>1616.0</ele>
      </trkpt>
      <trkpt lat="46.944157" lon="9.779719">
        <time>1970-01-01T00:00:00+00:00</time>
        <ele>1618.0</ele>
      </trkpt>
      <trkpt lat="46.944292" lon="9.780127">
        <time>1970-01-01T00:00:00+00:00</time>
        <ele>1619.0</ele>
      </trkpt>
      <trkpt lat="46.9443" lon="9.780832">
        <time>1970-01-01T00:00:00+00:00</time>
        <ele>1617.0</ele>
      </trkpt>
      <trkpt lat="46.944347" lon="9.780971">
        <time>1970-01-01T00:00:00+00:00</time>
        <ele>1616.0</ele>
      </trkpt>
      <trkpt lat="46.944379" lon="9.781043">
        <time>1970-01-01T00:00:00+00:00</time>
        <ele>1617.0</ele>
      </trkpt>
      <trkpt lat="46.944577" lon="9.781304">
        <time>1970-01-01T00:00:00+00:00</time>
        <ele>1621.0</ele>
      </trkpt>
      <trkpt lat="46.944664" lon="9.781484">
        <time>1970-01-01T00:00:00+00:00</time>
        <ele>1621.0</ele>
      </trkpt>
      <trkpt lat="46.944801" lon="9.782058">
        <time>1970-01-01T00:00:00+00:00</time>
        <ele>1622.0</ele>
      </trkpt>
      <trkpt lat="46.945029" lon="9.782624">
        <time>1970-01-01T00:00:00+00:00</time>
        <ele>1631.0</ele>
      </trkpt>
      <trkpt lat="46.945126" lon="9.782913">
        <time>1970-01-01T00:00:00+00:00</time>
        <ele>1634.0</ele>
      </trkpt>
      <trkpt lat="46.945219" lon="9.783084">
        <time>1970-01-01T00:00:00+00:00</time>
        <ele>1638.0</ele>
      </trkpt>
      <trkpt lat="46.945354" lon="9.783261">
        <time>1970-01-01T00:00:00+00:00</time>
        <ele>1642.0</ele>
      </trkpt>
      <trkpt lat="46.945727" lon="9.78351">
        <time>1970-01-01T00:00:00+00:00</time>
        <ele>1646.0</ele>
      </trkpt>
      <trkpt lat="46.946349" lon="9.78418">
        <time>1970-01-01T00:00:00+00:00</time>
        <ele>1654.0</ele>
      </trkpt>
      <trkpt lat="46.94649" lon="9.784262">
        <time>1970-01-01T00:00:00+00:00</time>
        <ele>1655.0</ele>
      </trkpt>
      <trkpt lat="46.946613" lon="9.784267">
        <time>1970-01-01T00:00:00+00:00</time>
        <ele>1656.0</ele>
      </trkpt>
      <trkpt lat="46.946677" lon="9.784249">
        <time>1970-01-01T00:00:00+00:00</time>
        <ele>1657.0</ele>
      </trkpt>
      <trkpt lat="46.946741" lon="9.784202">
        <time>1970-01-01T00:00:00+00:00</time>
        <ele>1658.0</ele>
      </trkpt>
      <trkpt lat="46.946985" lon="9.783855">
        <time>1970-01-01T00:00:00+00:00</time>
        <ele>1663.0</ele>
      </trkpt>
      <trkpt lat="46.947398" lon="9.783569">
        <time>1970-01-01T00:00:00+00:00</time>
        <ele>1667.0</ele>
      </trkpt>
      <trkpt lat="46.947467" lon="9.783555">
        <time>1970-01-01T00:00:00+00:00</time>
        <ele>1668.0</ele>
      </trkpt>
      <trkpt lat="46.94759" lon="9.783587">
        <time>1970-01-01T00:00:00+00:00</time>
        <ele>1668.0</ele>
      </trkpt>
      <trkpt lat="46.947708" lon="9.78372">
        <time>1970-01-01T00:00:00+00:00</time>
        <ele>1669.0</ele>
      </trkpt>
      <trkpt lat="46.948042" lon="9.784264">
        <time>1970-01-01T00:00:00+00:00</time>
        <ele>1673.0</ele>
      </trkpt>
      <trkpt lat="46.948253" lon="9.784781">
        <time>1970-01-01T00:00:00+00:00</time>
        <ele>1675.0</ele>
      </trkpt>
      <trkpt lat="46.948729" lon="9.785339">
        <time>1970-01-01T00:00:00+00:00</time>
        <ele>1683.0</ele>
      </trkpt>
      <trkpt lat="46.949241" lon="9.785842">
        <time>1970-01-01T00:00:00+00:00</time>
        <ele>1693.0</ele>
      </trkpt>
      <trkpt lat="46.949441" lon="9.786013">
        <time>1970-01-01T00:00:00+00:00</time>
        <ele>1694.0</ele>
      </trkpt>
    </trkseg>
  </trk>
</gpx>
